<?xml version="1.0"?>
<gpx xmlns="http://www.topografix.com/GPX/1/1" xmlns:xsi="http://www.w3.org/2001/XMLSchema-instance" version="1.1" creator="GPX RubyGem 1.0.0 -- http://dougfales.github.io/gpx/" xsi:schemaLocation="http://www.topografix.com/GPX/1/1 http://www.topografix.com/GPX/1/1/gpx.xsd">
  <metadata>
    <name/>
    <time>2026-05-07T22:17:11+00:00</time>
    <bound minlat="90.0" minlon="180.0" maxlat="-90.0" maxlon="-180.0"/>
  </metadata>
  <trk>
    <name/>
    <trkseg>
      <trkpt lat="46.799118" lon="9.596383">
        <time>1970-01-01T00:00:00+00:00</time>
        <ele>1934.0</ele>
      </trkpt>
      <trkpt lat="46.799055" lon="9.59638">
        <time>1970-01-01T00:00:00+00:00</time>
        <ele>1934.0</ele>
      </trkpt>
      <trkpt lat="46.798988" lon="9.596313">
        <time>1970-01-01T00:00:00+00:00</time>
        <ele>1934.0</ele>
      </trkpt>
      <trkpt lat="46.798947" lon="9.596246">
        <time>1970-01-01T00:00:00+00:00</time>
        <ele>1934.0</ele>
      </trkpt>
      <trkpt lat="46.798856" lon="9.596159">
        <time>1970-01-01T00:00:00+00:00</time>
        <ele>1935.0</ele>
      </trkpt>
      <trkpt lat="46.798672" lon="9.596038">
        <time>1970-01-01T00:00:00+00:00</time>
        <ele>1937.0</ele>
      </trkpt>
      <trkpt lat="46.798224" lon="9.595866">
        <time>1970-01-01T00:00:00+00:00</time>
        <ele>1939.0</ele>
      </trkpt>
      <trkpt lat="46.79736" lon="9.595436">
        <time>1970-01-01T00:00:00+00:00</time>
        <ele>1945.0</ele>
      </trkpt>
      <trkpt lat="46.797183" lon="9.59523">
        <time>1970-01-01T00:00:00+00:00</time>
        <ele>1950.0</ele>
      </trkpt>
      <trkpt lat="46.796909" lon="9.595156">
        <time>1970-01-01T00:00:00+00:00</time>
        <ele>1953.0</ele>
      </trkpt>
      <trkpt lat="46.796741" lon="9.594983">
        <time>1970-01-01T00:00:00+00:00</time>
        <ele>1958.0</ele>
      </trkpt>
      <trkpt lat="46.79557" lon="9.59437">
        <time>1970-01-01T00:00:00+00:00</time>
        <ele>1971.0</ele>
      </trkpt>
      <trkpt lat="46.795359" lon="9.594113">
        <time>1970-01-01T00:00:00+00:00</time>
        <ele>1976.0</ele>
      </trkpt>
      <trkpt lat="46.79508" lon="9.594069">
        <time>1970-01-01T00:00:00+00:00</time>
        <ele>1981.0</ele>
      </trkpt>
      <trkpt lat="46.794277" lon="9.593367">
        <time>1970-01-01T00:00:00+00:00</time>
        <ele>2000.0</ele>
      </trkpt>
      <trkpt lat="46.793687" lon="9.593567">
        <time>1970-01-01T00:00:00+00:00</time>
        <ele>2005.0</ele>
      </trkpt>
      <trkpt lat="46.793531" lon="9.593355">
        <time>1970-01-01T00:00:00+00:00</time>
        <ele>2008.0</ele>
      </trkpt>
      <trkpt lat="46.793341" lon="9.593289">
        <time>1970-01-01T00:00:00+00:00</time>
        <ele>2012.0</ele>
      </trkpt>
      <trkpt lat="46.793386" lon="9.593478">
        <time>1970-01-01T00:00:00+00:00</time>
        <ele>2011.0</ele>
      </trkpt>
      <trkpt lat="46.793051" lon="9.593445">
        <time>1970-01-01T00:00:00+00:00</time>
        <ele>2019.0</ele>
      </trkpt>
      <trkpt lat="46.792661" lon="9.593478">
        <time>1970-01-01T00:00:00+00:00</time>
        <ele>2030.0</ele>
      </trkpt>
      <trkpt lat="46.792539" lon="9.5933">
        <time>1970-01-01T00:00:00+00:00</time>
        <ele>2032.0</ele>
      </trkpt>
      <trkpt lat="46.792249" lon="9.593445">
        <time>1970-01-01T00:00:00+00:00</time>
        <ele>2040.0</ele>
      </trkpt>
      <trkpt lat="46.791145" lon="9.593333">
        <time>1970-01-01T00:00:00+00:00</time>
        <ele>2068.0</ele>
      </trkpt>
      <trkpt lat="46.790488" lon="9.593467">
        <time>1970-01-01T00:00:00+00:00</time>
        <ele>2085.0</ele>
      </trkpt>
      <trkpt lat="46.790332" lon="9.593032">
        <time>1970-01-01T00:00:00+00:00</time>
        <ele>2084.0</ele>
      </trkpt>
      <trkpt lat="46.789897" lon="9.592653">
        <time>1970-01-01T00:00:00+00:00</time>
        <ele>2093.0</ele>
      </trkpt>
      <trkpt lat="46.789574" lon="9.592074">
        <time>1970-01-01T00:00:00+00:00</time>
        <ele>2107.0</ele>
      </trkpt>
      <trkpt lat="46.789496" lon="9.592274">
        <time>1970-01-01T00:00:00+00:00</time>
        <ele>2108.0</ele>
      </trkpt>
      <trkpt lat="46.788604" lon="9.592575">
        <time>1970-01-01T00:00:00+00:00</time>
        <ele>2122.0</ele>
      </trkpt>
      <trkpt lat="46.787924" lon="9.59223">
        <time>1970-01-01T00:00:00+00:00</time>
        <ele>2128.0</ele>
      </trkpt>
      <trkpt lat="46.787244" lon="9.591773">
        <time>1970-01-01T00:00:00+00:00</time>
        <ele>2134.0</ele>
      </trkpt>
      <trkpt lat="46.78711" lon="9.591873">
        <time>1970-01-01T00:00:00+00:00</time>
        <ele>2136.0</ele>
      </trkpt>
      <trkpt lat="46.786843" lon="9.591728">
        <time>1970-01-01T00:00:00+00:00</time>
        <ele>2140.0</ele>
      </trkpt>
      <trkpt lat="46.786709" lon="9.591795">
        <time>1970-01-01T00:00:00+00:00</time>
        <ele>2142.0</ele>
      </trkpt>
      <trkpt lat="46.786464" lon="9.59175">
        <time>1970-01-01T00:00:00+00:00</time>
        <ele>2145.0</ele>
      </trkpt>
      <trkpt lat="46.786085" lon="9.591762">
        <time>1970-01-01T00:00:00+00:00</time>
        <ele>2150.0</ele>
      </trkpt>
      <trkpt lat="46.785806" lon="9.591416">
        <time>1970-01-01T00:00:00+00:00</time>
        <ele>2156.0</ele>
      </trkpt>
      <trkpt lat="46.785762" lon="9.591059">
        <time>1970-01-01T00:00:00+00:00</time>
        <ele>2156.0</ele>
      </trkpt>
      <trkpt lat="46.785361" lon="9.590613">
        <time>1970-01-01T00:00:00+00:00</time>
        <ele>2162.0</ele>
      </trkpt>
      <trkpt lat="46.785483" lon="9.589945">
        <time>1970-01-01T00:00:00+00:00</time>
        <ele>2167.0</ele>
      </trkpt>
      <trkpt lat="46.785349" lon="9.589644">
        <time>1970-01-01T00:00:00+00:00</time>
        <ele>2171.0</ele>
      </trkpt>
      <trkpt lat="46.785037" lon="9.589443">
        <time>1970-01-01T00:00:00+00:00</time>
        <ele>2175.0</ele>
      </trkpt>
      <trkpt lat="46.785037" lon="9.589176">
        <time>1970-01-01T00:00:00+00:00</time>
        <ele>2176.0</ele>
      </trkpt>
      <trkpt lat="46.784892" lon="9.588864">
        <time>1970-01-01T00:00:00+00:00</time>
        <ele>2179.0</ele>
      </trkpt>
      <trkpt lat="46.784447" lon="9.587604">
        <time>1970-01-01T00:00:00+00:00</time>
        <ele>2190.0</ele>
      </trkpt>
      <trkpt lat="46.783978" lon="9.587504">
        <time>1970-01-01T00:00:00+00:00</time>
        <ele>2196.0</ele>
      </trkpt>
      <trkpt lat="46.783978" lon="9.587325">
        <time>1970-01-01T00:00:00+00:00</time>
        <ele>2199.0</ele>
      </trkpt>
      <trkpt lat="46.783919" lon="9.587287">
        <time>1970-01-01T00:00:00+00:00</time>
        <ele>2199.0</ele>
      </trkpt>
      <trkpt lat="46.783728" lon="9.587086">
        <time>1970-01-01T00:00:00+00:00</time>
        <ele>2200.0</ele>
      </trkpt>
      <trkpt lat="46.783596" lon="9.586893">
        <time>1970-01-01T00:00:00+00:00</time>
        <ele>2203.0</ele>
      </trkpt>
      <trkpt lat="46.783319" lon="9.586962">
        <time>1970-01-01T00:00:00+00:00</time>
        <ele>2203.0</ele>
      </trkpt>
      <trkpt lat="46.783212" lon="9.587037">
        <time>1970-01-01T00:00:00+00:00</time>
        <ele>2203.0</ele>
      </trkpt>
      <trkpt lat="46.7831" lon="9.587048">
        <time>1970-01-01T00:00:00+00:00</time>
        <ele>2203.0</ele>
      </trkpt>
      <trkpt lat="46.782872" lon="9.586879">
        <time>1970-01-01T00:00:00+00:00</time>
        <ele>2207.0</ele>
      </trkpt>
      <trkpt lat="46.782657" lon="9.587027">
        <time>1970-01-01T00:00:00+00:00</time>
        <ele>2206.0</ele>
      </trkpt>
      <trkpt lat="46.782329" lon="9.587134">
        <time>1970-01-01T00:00:00+00:00</time>
        <ele>2209.0</ele>
      </trkpt>
      <trkpt lat="46.782229" lon="9.587276">
        <time>1970-01-01T00:00:00+00:00</time>
        <ele>2211.0</ele>
      </trkpt>
      <trkpt lat="46.782185" lon="9.58741">
        <time>1970-01-01T00:00:00+00:00</time>
        <ele>2211.0</ele>
      </trkpt>
      <trkpt lat="46.782126" lon="9.587512">
        <time>1970-01-01T00:00:00+00:00</time>
        <ele>2212.0</ele>
      </trkpt>
      <trkpt lat="46.781921" lon="9.587708">
        <time>1970-01-01T00:00:00+00:00</time>
        <ele>2218.0</ele>
      </trkpt>
      <trkpt lat="46.781814" lon="9.587896">
        <time>1970-01-01T00:00:00+00:00</time>
        <ele>2222.0</ele>
      </trkpt>
      <trkpt lat="46.781697" lon="9.58818">
        <time>1970-01-01T00:00:00+00:00</time>
        <ele>2225.0</ele>
      </trkpt>
      <trkpt lat="46.781522" lon="9.58848">
        <time>1970-01-01T00:00:00+00:00</time>
        <ele>2232.0</ele>
      </trkpt>
      <trkpt lat="46.781397" lon="9.588631">
        <time>1970-01-01T00:00:00+00:00</time>
        <ele>2237.0</ele>
      </trkpt>
      <trkpt lat="46.781293" lon="9.588719">
        <time>1970-01-01T00:00:00+00:00</time>
        <ele>2243.0</ele>
      </trkpt>
      <trkpt lat="46.781227" lon="9.588821">
        <time>1970-01-01T00:00:00+00:00</time>
        <ele>2249.0</ele>
      </trkpt>
      <trkpt lat="46.781152" lon="9.588994">
        <time>1970-01-01T00:00:00+00:00</time>
        <ele>2258.0</ele>
      </trkpt>
      <trkpt lat="46.781071" lon="9.589266">
        <time>1970-01-01T00:00:00+00:00</time>
        <ele>2268.0</ele>
      </trkpt>
      <trkpt lat="46.781026" lon="9.589583">
        <time>1970-01-01T00:00:00+00:00</time>
        <ele>2274.0</ele>
      </trkpt>
      <trkpt lat="46.780983" lon="9.590214">
        <time>1970-01-01T00:00:00+00:00</time>
        <ele>2287.0</ele>
      </trkpt>
      <trkpt lat="46.781071" lon="9.590348">
        <time>1970-01-01T00:00:00+00:00</time>
        <ele>2289.0</ele>
      </trkpt>
      <trkpt lat="46.780816" lon="9.591212">
        <time>1970-01-01T00:00:00+00:00</time>
        <ele>2307.0</ele>
      </trkpt>
      <trkpt lat="46.780705" lon="9.591397">
        <time>1970-01-01T00:00:00+00:00</time>
        <ele>2311.0</ele>
      </trkpt>
      <trkpt lat="46.780264" lon="9.59156">
        <time>1970-01-01T00:00:00+00:00</time>
        <ele>2314.0</ele>
      </trkpt>
      <trkpt lat="46.779796" lon="9.591257">
        <time>1970-01-01T00:00:00+00:00</time>
        <ele>2320.0</ele>
      </trkpt>
      <trkpt lat="46.779776" lon="9.591456">
        <time>1970-01-01T00:00:00+00:00</time>
        <ele>2322.0</ele>
      </trkpt>
      <trkpt lat="46.779238" lon="9.591472">
        <time>1970-01-01T00:00:00+00:00</time>
        <ele>2343.0</ele>
      </trkpt>
      <trkpt lat="46.779144" lon="9.591509">
        <time>1970-01-01T00:00:00+00:00</time>
        <ele>2347.0</ele>
      </trkpt>
      <trkpt lat="46.779054" lon="9.591592">
        <time>1970-01-01T00:00:00+00:00</time>
        <ele>2352.0</ele>
      </trkpt>
      <trkpt lat="46.778855" lon="9.591716">
        <time>1970-01-01T00:00:00+00:00</time>
        <ele>2361.0</ele>
      </trkpt>
      <trkpt lat="46.778788" lon="9.591735">
        <time>1970-01-01T00:00:00+00:00</time>
        <ele>2364.0</ele>
      </trkpt>
      <trkpt lat="46.778714" lon="9.591914">
        <time>1970-01-01T00:00:00+00:00</time>
        <ele>2367.0</ele>
      </trkpt>
      <trkpt lat="46.778113" lon="9.592322">
        <time>1970-01-01T00:00:00+00:00</time>
        <ele>2376.0</ele>
      </trkpt>
      <trkpt lat="46.778146" lon="9.592867">
        <time>1970-01-01T00:00:00+00:00</time>
        <ele>2381.0</ele>
      </trkpt>
      <trkpt lat="46.778062" lon="9.593242">
        <time>1970-01-01T00:00:00+00:00</time>
        <ele>2389.0</ele>
      </trkpt>
      <trkpt lat="46.778576" lon="9.593435">
        <time>1970-01-01T00:00:00+00:00</time>
        <ele>2403.0</ele>
      </trkpt>
      <trkpt lat="46.778547" lon="9.593569">
        <time>1970-01-01T00:00:00+00:00</time>
        <ele>2410.0</ele>
      </trkpt>
      <trkpt lat="46.778742" lon="9.59365">
        <time>1970-01-01T00:00:00+00:00</time>
        <ele>2418.0</ele>
      </trkpt>
      <trkpt lat="46.778878" lon="9.593746">
        <time>1970-01-01T00:00:00+00:00</time>
        <ele>2426.0</ele>
      </trkpt>
      <trkpt lat="46.779061" lon="9.594025">
        <time>1970-01-01T00:00:00+00:00</time>
        <ele>2444.0</ele>
      </trkpt>
      <trkpt lat="46.779245" lon="9.59409">
        <time>1970-01-01T00:00:00+00:00</time>
        <ele>2443.0</ele>
      </trkpt>
      <trkpt lat="46.779594" lon="9.594428">
        <time>1970-01-01T00:00:00+00:00</time>
        <ele>2435.0</ele>
      </trkpt>
      <trkpt lat="46.77973" lon="9.594487">
        <time>1970-01-01T00:00:00+00:00</time>
        <ele>2428.0</ele>
      </trkpt>
      <trkpt lat="46.780138" lon="9.594288">
        <time>1970-01-01T00:00:00+00:00</time>
        <ele>2424.0</ele>
      </trkpt>
      <trkpt lat="46.780351" lon="9.594385">
        <time>1970-01-01T00:00:00+00:00</time>
        <ele>2421.0</ele>
      </trkpt>
      <trkpt lat="46.780667" lon="9.594326">
        <time>1970-01-01T00:00:00+00:00</time>
        <ele>2427.0</ele>
      </trkpt>
      <trkpt lat="46.780902" lon="9.594336">
        <time>1970-01-01T00:00:00+00:00</time>
        <ele>2434.0</ele>
      </trkpt>
      <trkpt lat="46.781144" lon="9.59424">
        <time>1970-01-01T00:00:00+00:00</time>
        <ele>2441.0</ele>
      </trkpt>
      <trkpt lat="46.781306" lon="9.594218">
        <time>1970-01-01T00:00:00+00:00</time>
        <ele>2444.0</ele>
      </trkpt>
      <trkpt lat="46.781412" lon="9.594358">
        <time>1970-01-01T00:00:00+00:00</time>
        <ele>2441.0</ele>
      </trkpt>
      <trkpt lat="46.781784" lon="9.594567">
        <time>1970-01-01T00:00:00+00:00</time>
        <ele>2423.0</ele>
      </trkpt>
      <trkpt lat="46.782066" lon="9.594615">
        <time>1970-01-01T00:00:00+00:00</time>
        <ele>2413.0</ele>
      </trkpt>
      <trkpt lat="46.782515" lon="9.594889">
        <time>1970-01-01T00:00:00+00:00</time>
        <ele>2399.0</ele>
      </trkpt>
      <trkpt lat="46.782698" lon="9.594862">
        <time>1970-01-01T00:00:00+00:00</time>
        <ele>2395.0</ele>
      </trkpt>
      <trkpt lat="46.782823" lon="9.595216">
        <time>1970-01-01T00:00:00+00:00</time>
        <ele>2386.0</ele>
      </trkpt>
      <trkpt lat="46.783257" lon="9.595543">
        <time>1970-01-01T00:00:00+00:00</time>
        <ele>2381.0</ele>
      </trkpt>
      <trkpt lat="46.783414" lon="9.595581">
        <time>1970-01-01T00:00:00+00:00</time>
        <ele>2382.0</ele>
      </trkpt>
      <trkpt lat="46.783639" lon="9.595806">
        <time>1970-01-01T00:00:00+00:00</time>
        <ele>2383.0</ele>
      </trkpt>
      <trkpt lat="46.783991" lon="9.596047">
        <time>1970-01-01T00:00:00+00:00</time>
        <ele>2390.0</ele>
      </trkpt>
      <trkpt lat="46.784145" lon="9.596294">
        <time>1970-01-01T00:00:00+00:00</time>
        <ele>2392.0</ele>
      </trkpt>
      <trkpt lat="46.784373" lon="9.596573">
        <time>1970-01-01T00:00:00+00:00</time>
        <ele>2393.0</ele>
      </trkpt>
      <trkpt lat="46.784561" lon="9.596659">
        <time>1970-01-01T00:00:00+00:00</time>
        <ele>2392.0</ele>
      </trkpt>
      <trkpt lat="46.784726" lon="9.59683">
        <time>1970-01-01T00:00:00+00:00</time>
        <ele>2390.0</ele>
      </trkpt>
      <trkpt lat="46.784902" lon="9.596841">
        <time>1970-01-01T00:00:00+00:00</time>
        <ele>2389.0</ele>
      </trkpt>
      <trkpt lat="46.78502" lon="9.597002">
        <time>1970-01-01T00:00:00+00:00</time>
        <ele>2392.0</ele>
      </trkpt>
      <trkpt lat="46.78502" lon="9.597179">
        <time>1970-01-01T00:00:00+00:00</time>
        <ele>2394.0</ele>
      </trkpt>
      <trkpt lat="46.785152" lon="9.597335">
        <time>1970-01-01T00:00:00+00:00</time>
        <ele>2398.0</ele>
      </trkpt>
      <trkpt lat="46.785251" lon="9.597619">
        <time>1970-01-01T00:00:00+00:00</time>
        <ele>2396.0</ele>
      </trkpt>
      <trkpt lat="46.785589" lon="9.598182">
        <time>1970-01-01T00:00:00+00:00</time>
        <ele>2404.0</ele>
      </trkpt>
      <trkpt lat="46.785758" lon="9.59852">
        <time>1970-01-01T00:00:00+00:00</time>
        <ele>2406.0</ele>
      </trkpt>
      <trkpt lat="46.786011" lon="9.598788">
        <time>1970-01-01T00:00:00+00:00</time>
        <ele>2413.0</ele>
      </trkpt>
      <trkpt lat="46.786404" lon="9.598982">
        <time>1970-01-01T00:00:00+00:00</time>
        <ele>2422.0</ele>
      </trkpt>
      <trkpt lat="46.78664" lon="9.599137">
        <time>1970-01-01T00:00:00+00:00</time>
        <ele>2430.0</ele>
      </trkpt>
      <trkpt lat="46.786871" lon="9.599164">
        <time>1970-01-01T00:00:00+00:00</time>
        <ele>2435.0</ele>
      </trkpt>
      <trkpt lat="46.78726" lon="9.599287">
        <time>1970-01-01T00:00:00+00:00</time>
        <ele>2434.0</ele>
      </trkpt>
      <trkpt lat="46.787407" lon="9.599641">
        <time>1970-01-01T00:00:00+00:00</time>
        <ele>2428.0</ele>
      </trkpt>
      <trkpt lat="46.787503" lon="9.599652">
        <time>1970-01-01T00:00:00+00:00</time>
        <ele>2425.0</ele>
      </trkpt>
      <trkpt lat="46.787624" lon="9.599604">
        <time>1970-01-01T00:00:00+00:00</time>
        <ele>2423.0</ele>
      </trkpt>
      <trkpt lat="46.787668" lon="9.599507">
        <time>1970-01-01T00:00:00+00:00</time>
        <ele>2423.0</ele>
      </trkpt>
      <trkpt lat="46.787955" lon="9.599464">
        <time>1970-01-01T00:00:00+00:00</time>
        <ele>2417.0</ele>
      </trkpt>
      <trkpt lat="46.788054" lon="9.599395">
        <time>1970-01-01T00:00:00+00:00</time>
        <ele>2416.0</ele>
      </trkpt>
      <trkpt lat="46.788156" lon="9.599459">
        <time>1970-01-01T00:00:00+00:00</time>
        <ele>2415.0</ele>
      </trkpt>
      <trkpt lat="46.788542" lon="9.599459">
        <time>1970-01-01T00:00:00+00:00</time>
        <ele>2414.0</ele>
      </trkpt>
      <trkpt lat="46.788939" lon="9.599362">
        <time>1970-01-01T00:00:00+00:00</time>
        <ele>2416.0</ele>
      </trkpt>
      <trkpt lat="46.789288" lon="9.59948">
        <time>1970-01-01T00:00:00+00:00</time>
        <ele>2410.0</ele>
      </trkpt>
      <trkpt lat="46.789574" lon="9.599378">
        <time>1970-01-01T00:00:00+00:00</time>
        <ele>2407.0</ele>
      </trkpt>
      <trkpt lat="46.789629" lon="9.599319">
        <time>1970-01-01T00:00:00+00:00</time>
        <ele>2406.0</ele>
      </trkpt>
      <trkpt lat="46.790404" lon="9.599733">
        <time>1970-01-01T00:00:00+00:00</time>
        <ele>2391.0</ele>
      </trkpt>
      <trkpt lat="46.790772" lon="9.599743">
        <time>1970-01-01T00:00:00+00:00</time>
        <ele>2378.0</ele>
      </trkpt>
      <trkpt lat="46.790834" lon="9.599674">
        <time>1970-01-01T00:00:00+00:00</time>
        <ele>2376.0</ele>
      </trkpt>
      <trkpt lat="46.790907" lon="9.599497">
        <time>1970-01-01T00:00:00+00:00</time>
        <ele>2372.0</ele>
      </trkpt>
      <trkpt lat="46.791025" lon="9.599443">
        <time>1970-01-01T00:00:00+00:00</time>
        <ele>2367.0</ele>
      </trkpt>
      <trkpt lat="46.791172" lon="9.599539">
        <time>1970-01-01T00:00:00+00:00</time>
        <ele>2362.0</ele>
      </trkpt>
      <trkpt lat="46.791326" lon="9.599491">
        <time>1970-01-01T00:00:00+00:00</time>
        <ele>2357.0</ele>
      </trkpt>
      <trkpt lat="46.791829" lon="9.599679">
        <time>1970-01-01T00:00:00+00:00</time>
        <ele>2341.0</ele>
      </trkpt>
      <trkpt lat="46.792608" lon="9.599572">
        <time>1970-01-01T00:00:00+00:00</time>
        <ele>2324.0</ele>
      </trkpt>
      <trkpt lat="46.793144" lon="9.599979">
        <time>1970-01-01T00:00:00+00:00</time>
        <ele>2303.0</ele>
      </trkpt>
      <trkpt lat="46.793776" lon="9.600301">
        <time>1970-01-01T00:00:00+00:00</time>
        <ele>2271.0</ele>
      </trkpt>
      <trkpt lat="46.794059" lon="9.600679">
        <time>1970-01-01T00:00:00+00:00</time>
        <ele>2261.0</ele>
      </trkpt>
      <trkpt lat="46.794345" lon="9.600824">
        <time>1970-01-01T00:00:00+00:00</time>
        <ele>2261.0</ele>
      </trkpt>
      <trkpt lat="46.795032" lon="9.600813">
        <time>1970-01-01T00:00:00+00:00</time>
        <ele>2277.0</ele>
      </trkpt>
      <trkpt lat="46.795032" lon="9.600813">
        <time>1970-01-01T00:00:00+00:00</time>
        <ele>2277.0</ele>
      </trkpt>
      <trkpt lat="46.794345" lon="9.600824">
        <time>1970-01-01T00:00:00+00:00</time>
        <ele>2261.0</ele>
      </trkpt>
      <trkpt lat="46.794059" lon="9.600679">
        <time>1970-01-01T00:00:00+00:00</time>
        <ele>2261.0</ele>
      </trkpt>
      <trkpt lat="46.793776" lon="9.600301">
        <time>1970-01-01T00:00:00+00:00</time>
        <ele>2271.0</ele>
      </trkpt>
      <trkpt lat="46.793144" lon="9.599979">
        <time>1970-01-01T00:00:00+00:00</time>
        <ele>2303.0</ele>
      </trkpt>
      <trkpt lat="46.792608" lon="9.599572">
        <time>1970-01-01T00:00:00+00:00</time>
        <ele>2324.0</ele>
      </trkpt>
      <trkpt lat="46.791829" lon="9.599679">
        <time>1970-01-01T00:00:00+00:00</time>
        <ele>2341.0</ele>
      </trkpt>
      <trkpt lat="46.791326" lon="9.599491">
        <time>1970-01-01T00:00:00+00:00</time>
        <ele>2357.0</ele>
      </trkpt>
      <trkpt lat="46.791172" lon="9.599539">
        <time>1970-01-01T00:00:00+00:00</time>
        <ele>2362.0</ele>
      </trkpt>
      <trkpt lat="46.791025" lon="9.599443">
        <time>1970-01-01T00:00:00+00:00</time>
        <ele>2367.0</ele>
      </trkpt>
      <trkpt lat="46.790907" lon="9.599497">
        <time>1970-01-01T00:00:00+00:00</time>
        <ele>2372.0</ele>
      </trkpt>
      <trkpt lat="46.790834" lon="9.599674">
        <time>1970-01-01T00:00:00+00:00</time>
        <ele>2376.0</ele>
      </trkpt>
      <trkpt lat="46.790772" lon="9.599743">
        <time>1970-01-01T00:00:00+00:00</time>
        <ele>2378.0</ele>
      </trkpt>
      <trkpt lat="46.790404" lon="9.599733">
        <time>1970-01-01T00:00:00+00:00</time>
        <ele>2391.0</ele>
      </trkpt>
      <trkpt lat="46.789629" lon="9.599319">
        <time>1970-01-01T00:00:00+00:00</time>
        <ele>2406.0</ele>
      </trkpt>
      <trkpt lat="46.789574" lon="9.599378">
        <time>1970-01-01T00:00:00+00:00</time>
        <ele>2407.0</ele>
      </trkpt>
      <trkpt lat="46.789288" lon="9.59948">
        <time>1970-01-01T00:00:00+00:00</time>
        <ele>2410.0</ele>
      </trkpt>
      <trkpt lat="46.788939" lon="9.599362">
        <time>1970-01-01T00:00:00+00:00</time>
        <ele>2416.0</ele>
      </trkpt>
      <trkpt lat="46.788542" lon="9.599459">
        <time>1970-01-01T00:00:00+00:00</time>
        <ele>2414.0</ele>
      </trkpt>
      <trkpt lat="46.788156" lon="9.599459">
        <time>1970-01-01T00:00:00+00:00</time>
        <ele>2415.0</ele>
      </trkpt>
      <trkpt lat="46.788054" lon="9.599395">
        <time>1970-01-01T00:00:00+00:00</time>
        <ele>2416.0</ele>
      </trkpt>
      <trkpt lat="46.787955" lon="9.599464">
        <time>1970-01-01T00:00:00+00:00</time>
        <ele>2417.0</ele>
      </trkpt>
      <trkpt lat="46.787668" lon="9.599507">
        <time>1970-01-01T00:00:00+00:00</time>
        <ele>2423.0</ele>
      </trkpt>
      <trkpt lat="46.787624" lon="9.599604">
        <time>1970-01-01T00:00:00+00:00</time>
        <ele>2423.0</ele>
      </trkpt>
      <trkpt lat="46.787503" lon="9.599652">
        <time>1970-01-01T00:00:00+00:00</time>
        <ele>2425.0</ele>
      </trkpt>
      <trkpt lat="46.787407" lon="9.599641">
        <time>1970-01-01T00:00:00+00:00</time>
        <ele>2428.0</ele>
      </trkpt>
      <trkpt lat="46.78726" lon="9.599287">
        <time>1970-01-01T00:00:00+00:00</time>
        <ele>2434.0</ele>
      </trkpt>
      <trkpt lat="46.786871" lon="9.599164">
        <time>1970-01-01T00:00:00+00:00</time>
        <ele>2435.0</ele>
      </trkpt>
      <trkpt lat="46.78664" lon="9.599137">
        <time>1970-01-01T00:00:00+00:00</time>
        <ele>2430.0</ele>
      </trkpt>
      <trkpt lat="46.786404" lon="9.598982">
        <time>1970-01-01T00:00:00+00:00</time>
        <ele>2422.0</ele>
      </trkpt>
      <trkpt lat="46.786011" lon="9.598788">
        <time>1970-01-01T00:00:00+00:00</time>
        <ele>2413.0</ele>
      </trkpt>
      <trkpt lat="46.785758" lon="9.59852">
        <time>1970-01-01T00:00:00+00:00</time>
        <ele>2406.0</ele>
      </trkpt>
      <trkpt lat="46.785589" lon="9.598182">
        <time>1970-01-01T00:00:00+00:00</time>
        <ele>2404.0</ele>
      </trkpt>
      <trkpt lat="46.785251" lon="9.597619">
        <time>1970-01-01T00:00:00+00:00</time>
        <ele>2396.0</ele>
      </trkpt>
      <trkpt lat="46.785152" lon="9.597335">
        <time>1970-01-01T00:00:00+00:00</time>
        <ele>2398.0</ele>
      </trkpt>
      <trkpt lat="46.78502" lon="9.597179">
        <time>1970-01-01T00:00:00+00:00</time>
        <ele>2394.0</ele>
      </trkpt>
      <trkpt lat="46.78502" lon="9.597002">
        <time>1970-01-01T00:00:00+00:00</time>
        <ele>2392.0</ele>
      </trkpt>
      <trkpt lat="46.784902" lon="9.596841">
        <time>1970-01-01T00:00:00+00:00</time>
        <ele>2389.0</ele>
      </trkpt>
      <trkpt lat="46.784726" lon="9.59683">
        <time>1970-01-01T00:00:00+00:00</time>
        <ele>2390.0</ele>
      </trkpt>
      <trkpt lat="46.784561" lon="9.596659">
        <time>1970-01-01T00:00:00+00:00</time>
        <ele>2392.0</ele>
      </trkpt>
      <trkpt lat="46.784373" lon="9.596573">
        <time>1970-01-01T00:00:00+00:00</time>
        <ele>2393.0</ele>
      </trkpt>
      <trkpt lat="46.784145" lon="9.596294">
        <time>1970-01-01T00:00:00+00:00</time>
        <ele>2392.0</ele>
      </trkpt>
      <trkpt lat="46.783991" lon="9.596047">
        <time>1970-01-01T00:00:00+00:00</time>
        <ele>2390.0</ele>
      </trkpt>
      <trkpt lat="46.783639" lon="9.595806">
        <time>1970-01-01T00:00:00+00:00</time>
        <ele>2383.0</ele>
      </trkpt>
      <trkpt lat="46.783414" lon="9.595581">
        <time>1970-01-01T00:00:00+00:00</time>
        <ele>2382.0</ele>
      </trkpt>
      <trkpt lat="46.783257" lon="9.595543">
        <time>1970-01-01T00:00:00+00:00</time>
        <ele>2381.0</ele>
      </trkpt>
      <trkpt lat="46.782823" lon="9.595216">
        <time>1970-01-01T00:00:00+00:00</time>
        <ele>2386.0</ele>
      </trkpt>
      <trkpt lat="46.782698" lon="9.594862">
        <time>1970-01-01T00:00:00+00:00</time>
        <ele>2395.0</ele>
      </trkpt>
      <trkpt lat="46.782515" lon="9.594889">
        <time>1970-01-01T00:00:00+00:00</time>
        <ele>2399.0</ele>
      </trkpt>
      <trkpt lat="46.782066" lon="9.594615">
        <time>1970-01-01T00:00:00+00:00</time>
        <ele>2413.0</ele>
      </trkpt>
      <trkpt lat="46.781784" lon="9.594567">
        <time>1970-01-01T00:00:00+00:00</time>
        <ele>2423.0</ele>
      </trkpt>
      <trkpt lat="46.781412" lon="9.594358">
        <time>1970-01-01T00:00:00+00:00</time>
        <ele>2441.0</ele>
      </trkpt>
      <trkpt lat="46.781306" lon="9.594218">
        <time>1970-01-01T00:00:00+00:00</time>
        <ele>2444.0</ele>
      </trkpt>
      <trkpt lat="46.781144" lon="9.59424">
        <time>1970-01-01T00:00:00+00:00</time>
        <ele>2441.0</ele>
      </trkpt>
      <trkpt lat="46.780902" lon="9.594336">
        <time>1970-01-01T00:00:00+00:00</time>
        <ele>2434.0</ele>
      </trkpt>
      <trkpt lat="46.780667" lon="9.594326">
        <time>1970-01-01T00:00:00+00:00</time>
        <ele>2427.0</ele>
      </trkpt>
      <trkpt lat="46.780351" lon="9.594385">
        <time>1970-01-01T00:00:00+00:00</time>
        <ele>2421.0</ele>
      </trkpt>
      <trkpt lat="46.780138" lon="9.594288">
        <time>1970-01-01T00:00:00+00:00</time>
        <ele>2424.0</ele>
      </trkpt>
      <trkpt lat="46.77973" lon="9.594487">
        <time>1970-01-01T00:00:00+00:00</time>
        <ele>2428.0</ele>
      </trkpt>
      <trkpt lat="46.779594" lon="9.594428">
        <time>1970-01-01T00:00:00+00:00</time>
        <ele>2435.0</ele>
      </trkpt>
      <trkpt lat="46.779245" lon="9.59409">
        <time>1970-01-01T00:00:00+00:00</time>
        <ele>2443.0</ele>
      </trkpt>
      <trkpt lat="46.779061" lon="9.594025">
        <time>1970-01-01T00:00:00+00:00</time>
        <ele>2444.0</ele>
      </trkpt>
      <trkpt lat="46.778878" lon="9.593746">
        <time>1970-01-01T00:00:00+00:00</time>
        <ele>2426.0</ele>
      </trkpt>
      <trkpt lat="46.778742" lon="9.59365">
        <time>1970-01-01T00:00:00+00:00</time>
        <ele>2418.0</ele>
      </trkpt>
      <trkpt lat="46.778547" lon="9.593569">
        <time>1970-01-01T00:00:00+00:00</time>
        <ele>2410.0</ele>
      </trkpt>
      <trkpt lat="46.778576" lon="9.593435">
        <time>1970-01-01T00:00:00+00:00</time>
        <ele>2403.0</ele>
      </trkpt>
      <trkpt lat="46.778062" lon="9.593242">
        <time>1970-01-01T00:00:00+00:00</time>
        <ele>2389.0</ele>
      </trkpt>
      <trkpt lat="46.778146" lon="9.592867">
        <time>1970-01-01T00:00:00+00:00</time>
        <ele>2381.0</ele>
      </trkpt>
      <trkpt lat="46.778113" lon="9.592322">
        <time>1970-01-01T00:00:00+00:00</time>
        <ele>2376.0</ele>
      </trkpt>
      <trkpt lat="46.778714" lon="9.591914">
        <time>1970-01-01T00:00:00+00:00</time>
        <ele>2367.0</ele>
      </trkpt>
      <trkpt lat="46.778788" lon="9.591735">
        <time>1970-01-01T00:00:00+00:00</time>
        <ele>2364.0</ele>
      </trkpt>
      <trkpt lat="46.778855" lon="9.591716">
        <time>1970-01-01T00:00:00+00:00</time>
        <ele>2361.0</ele>
      </trkpt>
      <trkpt lat="46.779054" lon="9.591592">
        <time>1970-01-01T00:00:00+00:00</time>
        <ele>2352.0</ele>
      </trkpt>
      <trkpt lat="46.779144" lon="9.591509">
        <time>1970-01-01T00:00:00+00:00</time>
        <ele>2347.0</ele>
      </trkpt>
      <trkpt lat="46.779238" lon="9.591472">
        <time>1970-01-01T00:00:00+00:00</time>
        <ele>2343.0</ele>
      </trkpt>
      <trkpt lat="46.779776" lon="9.591456">
        <time>1970-01-01T00:00:00+00:00</time>
        <ele>2322.0</ele>
      </trkpt>
      <trkpt lat="46.779796" lon="9.591257">
        <time>1970-01-01T00:00:00+00:00</time>
        <ele>2320.0</ele>
      </trkpt>
      <trkpt lat="46.780264" lon="9.59156">
        <time>1970-01-01T00:00:00+00:00</time>
        <ele>2314.0</ele>
      </trkpt>
      <trkpt lat="46.780705" lon="9.591397">
        <time>1970-01-01T00:00:00+00:00</time>
        <ele>2311.0</ele>
      </trkpt>
      <trkpt lat="46.780816" lon="9.591212">
        <time>1970-01-01T00:00:00+00:00</time>
        <ele>2307.0</ele>
      </trkpt>
      <trkpt lat="46.781071" lon="9.590348">
        <time>1970-01-01T00:00:00+00:00</time>
        <ele>2289.0</ele>
      </trkpt>
      <trkpt lat="46.780983" lon="9.590214">
        <time>1970-01-01T00:00:00+00:00</time>
        <ele>2287.0</ele>
      </trkpt>
      <trkpt lat="46.781026" lon="9.589583">
        <time>1970-01-01T00:00:00+00:00</time>
        <ele>2274.0</ele>
      </trkpt>
      <trkpt lat="46.781071" lon="9.589266">
        <time>1970-01-01T00:00:00+00:00</time>
        <ele>2268.0</ele>
      </trkpt>
      <trkpt lat="46.781152" lon="9.588994">
        <time>1970-01-01T00:00:00+00:00</time>
        <ele>2258.0</ele>
      </trkpt>
      <trkpt lat="46.781227" lon="9.588821">
        <time>1970-01-01T00:00:00+00:00</time>
        <ele>2249.0</ele>
      </trkpt>
      <trkpt lat="46.781293" lon="9.588719">
        <time>1970-01-01T00:00:00+00:00</time>
        <ele>2243.0</ele>
      </trkpt>
      <trkpt lat="46.781397" lon="9.588631">
        <time>1970-01-01T00:00:00+00:00</time>
        <ele>2237.0</ele>
      </trkpt>
      <trkpt lat="46.781522" lon="9.58848">
        <time>1970-01-01T00:00:00+00:00</time>
        <ele>2232.0</ele>
      </trkpt>
      <trkpt lat="46.781697" lon="9.58818">
        <time>1970-01-01T00:00:00+00:00</time>
        <ele>2225.0</ele>
      </trkpt>
      <trkpt lat="46.781814" lon="9.587896">
        <time>1970-01-01T00:00:00+00:00</time>
        <ele>2222.0</ele>
      </trkpt>
      <trkpt lat="46.781921" lon="9.587708">
        <time>1970-01-01T00:00:00+00:00</time>
        <ele>2218.0</ele>
      </trkpt>
      <trkpt lat="46.782126" lon="9.587512">
        <time>1970-01-01T00:00:00+00:00</time>
        <ele>2212.0</ele>
      </trkpt>
      <trkpt lat="46.782185" lon="9.58741">
        <time>1970-01-01T00:00:00+00:00</time>
        <ele>2211.0</ele>
      </trkpt>
      <trkpt lat="46.782229" lon="9.587276">
        <time>1970-01-01T00:00:00+00:00</time>
        <ele>2211.0</ele>
      </trkpt>
      <trkpt lat="46.782329" lon="9.587134">
        <time>1970-01-01T00:00:00+00:00</time>
        <ele>2209.0</ele>
      </trkpt>
      <trkpt lat="46.782657" lon="9.587027">
        <time>1970-01-01T00:00:00+00:00</time>
        <ele>2206.0</ele>
      </trkpt>
      <trkpt lat="46.782872" lon="9.586879">
        <time>1970-01-01T00:00:00+00:00</time>
        <ele>2207.0</ele>
      </trkpt>
      <trkpt lat="46.7831" lon="9.587048">
        <time>1970-01-01T00:00:00+00:00</time>
        <ele>2203.0</ele>
      </trkpt>
      <trkpt lat="46.783212" lon="9.587037">
        <time>1970-01-01T00:00:00+00:00</time>
        <ele>2203.0</ele>
      </trkpt>
      <trkpt lat="46.783319" lon="9.586962">
        <time>1970-01-01T00:00:00+00:00</time>
        <ele>2203.0</ele>
      </trkpt>
      <trkpt lat="46.783596" lon="9.586893">
        <time>1970-01-01T00:00:00+00:00</time>
        <ele>2203.0</ele>
      </trkpt>
      <trkpt lat="46.783728" lon="9.587086">
        <time>1970-01-01T00:00:00+00:00</time>
        <ele>2200.0</ele>
      </trkpt>
      <trkpt lat="46.783919" lon="9.587287">
        <time>1970-01-01T00:00:00+00:00</time>
        <ele>2199.0</ele>
      </trkpt>
      <trkpt lat="46.783978" lon="9.587325">
        <time>1970-01-01T00:00:00+00:00</time>
        <ele>2199.0</ele>
      </trkpt>
      <trkpt lat="46.783978" lon="9.587504">
        <time>1970-01-01T00:00:00+00:00</time>
        <ele>2196.0</ele>
      </trkpt>
      <trkpt lat="46.784447" lon="9.587604">
        <time>1970-01-01T00:00:00+00:00</time>
        <ele>2190.0</ele>
      </trkpt>
      <trkpt lat="46.784892" lon="9.588864">
        <time>1970-01-01T00:00:00+00:00</time>
        <ele>2179.0</ele>
      </trkpt>
      <trkpt lat="46.785037" lon="9.589176">
        <time>1970-01-01T00:00:00+00:00</time>
        <ele>2176.0</ele>
      </trkpt>
      <trkpt lat="46.785037" lon="9.589443">
        <time>1970-01-01T00:00:00+00:00</time>
        <ele>2175.0</ele>
      </trkpt>
      <trkpt lat="46.785349" lon="9.589644">
        <time>1970-01-01T00:00:00+00:00</time>
        <ele>2171.0</ele>
      </trkpt>
      <trkpt lat="46.785483" lon="9.589945">
        <time>1970-01-01T00:00:00+00:00</time>
        <ele>2167.0</ele>
      </trkpt>
      <trkpt lat="46.785361" lon="9.590613">
        <time>1970-01-01T00:00:00+00:00</time>
        <ele>2162.0</ele>
      </trkpt>
      <trkpt lat="46.785762" lon="9.591059">
        <time>1970-01-01T00:00:00+00:00</time>
        <ele>2156.0</ele>
      </trkpt>
      <trkpt lat="46.785806" lon="9.591416">
        <time>1970-01-01T00:00:00+00:00</time>
        <ele>2156.0</ele>
      </trkpt>
      <trkpt lat="46.786085" lon="9.591762">
        <time>1970-01-01T00:00:00+00:00</time>
        <ele>2150.0</ele>
      </trkpt>
      <trkpt lat="46.786464" lon="9.59175">
        <time>1970-01-01T00:00:00+00:00</time>
        <ele>2145.0</ele>
      </trkpt>
      <trkpt lat="46.786709" lon="9.591795">
        <time>1970-01-01T00:00:00+00:00</time>
        <ele>2142.0</ele>
      </trkpt>
      <trkpt lat="46.786843" lon="9.591728">
        <time>1970-01-01T00:00:00+00:00</time>
        <ele>2140.0</ele>
      </trkpt>
      <trkpt lat="46.78711" lon="9.591873">
        <time>1970-01-01T00:00:00+00:00</time>
        <ele>2136.0</ele>
      </trkpt>
      <trkpt lat="46.787244" lon="9.591773">
        <time>1970-01-01T00:00:00+00:00</time>
        <ele>2134.0</ele>
      </trkpt>
      <trkpt lat="46.787924" lon="9.59223">
        <time>1970-01-01T00:00:00+00:00</time>
        <ele>2128.0</ele>
      </trkpt>
      <trkpt lat="46.788604" lon="9.592575">
        <time>1970-01-01T00:00:00+00:00</time>
        <ele>2122.0</ele>
      </trkpt>
      <trkpt lat="46.789496" lon="9.592274">
        <time>1970-01-01T00:00:00+00:00</time>
        <ele>2108.0</ele>
      </trkpt>
      <trkpt lat="46.789574" lon="9.592074">
        <time>1970-01-01T00:00:00+00:00</time>
        <ele>2107.0</ele>
      </trkpt>
      <trkpt lat="46.789897" lon="9.592653">
        <time>1970-01-01T00:00:00+00:00</time>
        <ele>2093.0</ele>
      </trkpt>
      <trkpt lat="46.790332" lon="9.593032">
        <time>1970-01-01T00:00:00+00:00</time>
        <ele>2084.0</ele>
      </trkpt>
      <trkpt lat="46.790488" lon="9.593467">
        <time>1970-01-01T00:00:00+00:00</time>
        <ele>2085.0</ele>
      </trkpt>
      <trkpt lat="46.791145" lon="9.593333">
        <time>1970-01-01T00:00:00+00:00</time>
        <ele>2068.0</ele>
      </trkpt>
      <trkpt lat="46.792249" lon="9.593445">
        <time>1970-01-01T00:00:00+00:00</time>
        <ele>2040.0</ele>
      </trkpt>
      <trkpt lat="46.792539" lon="9.5933">
        <time>1970-01-01T00:00:00+00:00</time>
        <ele>2032.0</ele>
      </trkpt>
      <trkpt lat="46.792661" lon="9.593478">
        <time>1970-01-01T00:00:00+00:00</time>
        <ele>2030.0</ele>
      </trkpt>
      <trkpt lat="46.793051" lon="9.593445">
        <time>1970-01-01T00:00:00+00:00</time>
        <ele>2019.0</ele>
      </trkpt>
      <trkpt lat="46.793386" lon="9.593478">
        <time>1970-01-01T00:00:00+00:00</time>
        <ele>2011.0</ele>
      </trkpt>
      <trkpt lat="46.793341" lon="9.593289">
        <time>1970-01-01T00:00:00+00:00</time>
        <ele>2012.0</ele>
      </trkpt>
      <trkpt lat="46.793531" lon="9.593355">
        <time>1970-01-01T00:00:00+00:00</time>
        <ele>2008.0</ele>
      </trkpt>
      <trkpt lat="46.793687" lon="9.593567">
        <time>1970-01-01T00:00:00+00:00</time>
        <ele>2005.0</ele>
      </trkpt>
      <trkpt lat="46.794277" lon="9.593367">
        <time>1970-01-01T00:00:00+00:00</time>
        <ele>2000.0</ele>
      </trkpt>
      <trkpt lat="46.79508" lon="9.594069">
        <time>1970-01-01T00:00:00+00:00</time>
        <ele>1981.0</ele>
      </trkpt>
      <trkpt lat="46.795359" lon="9.594113">
        <time>1970-01-01T00:00:00+00:00</time>
        <ele>1976.0</ele>
      </trkpt>
      <trkpt lat="46.79557" lon="9.59437">
        <time>1970-01-01T00:00:00+00:00</time>
        <ele>1971.0</ele>
      </trkpt>
      <trkpt lat="46.796741" lon="9.594983">
        <time>1970-01-01T00:00:00+00:00</time>
        <ele>1958.0</ele>
      </trkpt>
      <trkpt lat="46.796909" lon="9.595156">
        <time>1970-01-01T00:00:00+00:00</time>
        <ele>1953.0</ele>
      </trkpt>
      <trkpt lat="46.797183" lon="9.59523">
        <time>1970-01-01T00:00:00+00:00</time>
        <ele>1950.0</ele>
      </trkpt>
      <trkpt lat="46.79736" lon="9.595436">
        <time>1970-01-01T00:00:00+00:00</time>
        <ele>1945.0</ele>
      </trkpt>
      <trkpt lat="46.798224" lon="9.595866">
        <time>1970-01-01T00:00:00+00:00</time>
        <ele>1939.0</ele>
      </trkpt>
      <trkpt lat="46.798672" lon="9.596038">
        <time>1970-01-01T00:00:00+00:00</time>
        <ele>1937.0</ele>
      </trkpt>
      <trkpt lat="46.798856" lon="9.596159">
        <time>1970-01-01T00:00:00+00:00</time>
        <ele>1935.0</ele>
      </trkpt>
      <trkpt lat="46.798947" lon="9.596246">
        <time>1970-01-01T00:00:00+00:00</time>
        <ele>1934.0</ele>
      </trkpt>
      <trkpt lat="46.798988" lon="9.596313">
        <time>1970-01-01T00:00:00+00:00</time>
        <ele>1934.0</ele>
      </trkpt>
      <trkpt lat="46.799055" lon="9.59638">
        <time>1970-01-01T00:00:00+00:00</time>
        <ele>1934.0</ele>
      </trkpt>
      <trkpt lat="46.799118" lon="9.596383">
        <time>1970-01-01T00:00:00+00:00</time>
        <ele>1934.0</ele>
      </trkpt>
    </trkseg>
  </trk>
</gpx>
